Kuchera_Ratio
0.0 0.0 0.0 0.0 0.0 0.0 0.0 0.0 0.0 0.0 0.0 0.0 0.0 0.0 0.0 0.0 0.0 0.0 0.0 0.0 0.0 0.0 0.0 0.0 0.0 0.0 0.0 0.0 0.0 0.0 0.0 0.0 0.0 0.0 0.0 0.0 0.0 0.0
0.0 0.0 0.0 0.0 0.0 0.0 0.0 0.0 0.0 0.0 0.0 0.0 0.0 0.0 0.0 0.0 0.0 0.0 0.0 0.0 0.0 0.0 0.0 0.0 0.0 0.0 0.0 0.0 0.0 0.0 0.0 0.0 0.0 0.0 0.0 0.0 0.0 0.0
0.0 0.0 0.0 0.0 0.0 0.0 0.0 0.0 0.0 0.0 0.0 0.0 0.0 0.0 0.0 0.0 0.0 0.0 0.0 0.0 0.0 0.0 0.0 0.0 0.0 0.0 0.0 0.0 0.0 0.0 0.0 0.0 0.0 0.0 0.0 0.0 0.0 0.0
0.0 0.0 0.0 0.0 0.0 0.0 0.0 0.0 0.0 0.0 0.0 0.0 0.0 0.0 0.0 0.0 0.0 0.0 0.0 0.0 0.0 0.0 0.0 0.0 0.0 0.0 0.0 0.0 0.0 0.0 0.0 0.0 0.0 0.0 0.0 0.0 0.0 0.0
0.0 0.0 0.0 0.0 0.0 0.0 0.0 0.0 0.0 0.0 0.0 0.0 0.0 0.0 0.0 0.0 0.0 0.0 0.0 0.0 0.0 0.0 0.0 0.0 0.0 0.0 0.0 0.0 0.0 0.0 0.0 0.0 0.0 0.0 0.0 0.0 0.0 0.0
0.0 0.0 0.0 0.0 0.0 0.0 0.0 0.0 0.0 0.0 0.0 0.0 0.0 0.0 0.0 0.0 0.0 0.0 0.0 0.0 0.0 0.0 0.0 0.0 0.0 0.0 0.0 0.0 0.0 0.0 0.0 0.0 0.0 0.0 0.0 0.0 0.0 0.0
0.0 0.0 0.0 0.0 0.0 0.0 0.0 0.0 0.0 0.0 0.0 0.0 0.0 0.0 0.0 0.0 0.0 0.0 0.0 0.0 0.0 0.0 0.0 0.0 0.0 0.0 0.0 0.0 0.0 0.0 0.0 0.0 0.0 0.0 0.0 0.0 0.0 0.0
0.0 0.0 0.0 0.0 0.0 0.0 0.0 0.0 0.0 0.0 0.0 0.0 0.0 0.0 0.0 0.0 0.0 0.0 0.0 0.0 0.0 0.0 0.2 1.1 0.0 0.3 0.0 0.0 0.0 0.0 0.0 0.0 0.0 0.0 0.0 0.0 0.0 0.0
0.0 0.0 0.0 0.0 0.0 0.0 0.0 0.0 0.0 0.0 0.0 0.0 0.0 0.0 0.0 0.0 0.0 0.0 0.0 0.0 0.0 0.0 0.2 0.5 2.0 1.3 0.0 0.0 0.0 0.0 0.0 0.0 0.0 0.0 0.0 0.0 0.0 0.0
0.0 0.0 0.0 0.0 0.0 0.0 0.0 0.0 0.0 0.0 0.0 0.0 0.0 0.0 0.0 0.0 0.0 0.0 0.0 0.0 0.0 0.0 0.0 1.9 1.5 1.7 0.2 0.0 0.0 0.0 0.0 0.0 0.0 0.0 0.0 0.0 0.0 0.0
0.0 0.0 0.0 0.0 0.0 0.0 0.0 0.0 0.0 0.0 0.0 0.0 0.0 0.0 0.0 0.0 0.0 0.0 1.7 2.2 4.7 2.9 2.7 0.8 3.1 2.5 1.8 1.1 0.0 0.0 0.0 0.0 0.0 0.0 0.0 0.0 0.0 0.0
0.0 0.0 0.0 0.0 0.0 0.0 0.0 0.0 0.0 0.0 0.0 0.0 0.0 0.0 0.0 0.0 0.0 0.0 0.0 1.3 2.2 4.9 2.1 2.1 3.9 3.0 4.6 3.0 1.8 0.0 0.0 0.0 0.0 0.0 0.0 0.0 0.0 1.9
0.0 0.0 0.0 0.0 0.0 0.0 0.0 0.0 0.0 0.0 0.0 0.0 0.0 0.0 0.0 0.0 0.0 0.0 0.0 0.0 0.4 0.9 0.0 2.7 4.0 3.7 2.8 4.6 4.4 3.7 3.0 2.1 0.7 0.0 0.0 0.0 0.0 0.0
0.0 0.0 0.0 0.0 0.0 0.0 0.0 0.0 0.0 0.0 0.0 0.0 0.0 0.0 0.0 0.1 0.0 0.0 0.0 0.0 0.0 0.0 0.0 0.0 1.7 2.3 3.3 4.7 3.6 4.5 5.3 4.9 3.7 5.4 4.3 1.9 0.0 0.0
0.0 0.0 0.0 0.0 0.0 0.0 0.0 0.0 0.0 0.0 0.0 0.0 0.4 0.8 0.3 0.8 2.1 3.0 3.5 3.5 3.5 1.7 0.7 0.0 0.9 2.1 2.4 2.3 2.6 3.8 5.2 7.0 6.4 6.3 6.6 6.4 6.6 7.2
0.0 0.0 0.0 0.0 0.0 0.0 0.0 0.0 0.0 0.0 0.0 0.0 0.7 1.0 2.2 3.4 4.3 4.3 6.9 7.6 8.0 7.1 4.8 5.0 4.9 4.2 5.2 4.5 3.9 4.1 5.1 4.5 5.6 7.2 7.3 8.0 7.8 8.4
0.0 0.0 0.0 0.0 0.0 0.0 0.0 0.0 0.0 0.0 0.7 1.6 2.2 2.4 3.1 4.0 6.3 7.2 8.0 8.8 10.4 9.4 7.0 6.4 7.5 8.0 6.3 4.4 6.3 5.9 5.5 6.1 6.1 7.6 9.3 9.0 8.6 9.0
0.0 1.3 1.6 0.8 1.0 0.8 0.9 1.8 1.5 1.3 1.4 1.2 2.1 3.1 5.2 7.1 7.7 8.0 8.1 9.2 10.2 8.4 7.8 8.1 8.6 10.4 10.4 9.5 6.9 7.2 7.4 7.5 7.1 8.6 10.8 12.3 10.4 8.0
1.7 3.0 2.8 2.6 2.4 2.1 2.1 1.7 2.3 2.2 1.7 2.6 4.4 5.6 6.1 6.7 6.6 8.4 9.2 10.4 11.1 11.1 9.6 8.9 9.5 10.8 12.4 12.1 8.2 2.9 7.8 7.5 8.0 9.3 10.5 12.3 12.5 10.1
3.3 3.5 3.5 2.5 2.0 1.8 2.2 2.5 3.2 3.3 4.0 4.5 5.4 6.2 6.9 7.2 7.9 9.4 9.4 9.9 10.3 11.0 11.9 11.5 11.4 10.8 9.6 10.2 9.8 7.6 4.2 8.2 9.4 9.8 10.0 11.9 12.0 5.8
6.5 6.0 5.3 4.4 3.6 3.2 2.2 2.4 2.1 3.2 4.1 5.4 6.1 7.0 7.7 8.0 9.1 9.3 9.2 6.3 7.0 10.5 12.1 11.4 8.8 3.9 10.1 11.0 12.9 12.0 8.4 4.3 6.4 8.7 10.6 12.6 13.9 14.1
7.2 7.1 6.8 6.5 6.0 5.4 5.1 4.0 4.4 4.9 5.8 6.3 6.5 6.9 7.4 7.5 8.3 9.3 9.7 10.0 9.0 10.4 10.0 8.5 8.4 7.3 11.7 12.4 12.4 12.0 11.5 11.1 5.8 3.5 6.0 8.8 13.7 15.7
8.0 7.7 7.5 7.1 6.6 6.5 6.1 6.4 7.0 7.2 7.0 7.0 7.1 7.3 7.2 7.8 7.3 8.1 8.9 9.3 9.7 9.9 10.4 10.7 9.6 8.4 9.4 10.5 10.5 12.5 13.5 13.3 13.0 13.3 12.6 5.4 4.6 4.7